St. Joseph, KS

1:34 PM CST on November 13, 2019 (GMT -0600)
Rosecrans Memorial

Weather History for KSTJ - September, 2019

Change the Weather History Date:

Tuesday, September 24, 2019

  Actual Average Record
Temperature  
Mean Temperature 70 °F 63 °F  
Max Temperature 85 °F 76 °F 92 °F (2017)
Min Temperature 55 °F 50 °F 30 °F (1989)
Degree Days  
Heating Degree Days 0 4  
Month to date heating degree days 0 44  
Since 1 July heating degree days 0 49  
Cooling Degree Days 5 2  
Month to date cooling degree days 259 108  
Year to date cooling degree days 1403 1185  
Growing Degree Days 18 (Base 50)    
Moisture  
Dew Point 65 °F    
Average Humidity 79    
Maximum Humidity 93    
Minimum Humidity 65    
Precipitation  
Precipitation 0.00 in 0.09 in 2.01 in (1900)
Month to date precipitation 3.24 2.89  
Year to date precipitation 32.51 29.19  
Sea Level Pressure  
Sea Level Pressure 29.83 in    
Wind  
Wind Speed 9 mph (South)    
Max Wind Speed 21 mph    
Max Gust Speed 27 mph    
Visibility 10 miles    
Events      
T = Trace of Precipitation, MM = Missing Value Source: NWS Daily Summary

Daily Weather History Graph

Daily Weather History Graph

Search for Another Location

Airport or City:

Astronomy

Sep. 24, 2019 Rise Set
Actual Time 7:08 AM CDT 7:13 PM CDT
Civil Twilight 6:42 AM CDT 7:40 PM CDT
Nautical Twilight 6:10 AM CDT 8:12 PM CDT
Astronomical Twilight 5:38 AM CDT 8:43 PM CDT
Moon 1:55 AM CDT (9/24) 4:59 PM CDT (9/24)
Length of Visible Light 12h 58m
Length of Day
12h 04m
Waning Crescent, 23% of the Moon is Illuminated
Sep 24
Waning Crescent
Sep 28
New
Oct 5
First Quarter
Oct 13
Full
Oct 21
Last Quarter

Hourly Weather History & Observations

Time (CDT) Temp. Heat Index Dew Point Humidity Pressure Visibility Wind Dir Wind Speed Gust Speed Precip Events Conditions
12:53 AM 60.1 °F - 57.0 °F 90% 29.97 in 10.0 mi SE 3.5 mph - N/A   Clear
1:53 AM 55.9 °F - 54.0 °F 93% 29.97 in 10.0 mi Calm Calm - N/A   Clear
2:53 AM 55.9 °F - 54.0 °F 93% 29.96 in 10.0 mi SE 3.5 mph - N/A   Clear
3:53 AM 60.1 °F - 57.0 °F 90% 29.95 in 10.0 mi SSE 3.5 mph - N/A   Clear
4:53 AM 60.1 °F - 55.0 °F 83% 29.94 in 10.0 mi Calm Calm - N/A   Clear
5:53 AM 55.9 °F - 53.1 °F 90% 29.95 in 10.0 mi Calm Calm - N/A   Clear
6:53 AM 60.1 °F - 55.9 °F 86% 29.94 in 10.0 mi SSE 4.6 mph - N/A   Clear
7:53 AM 62.1 °F - 57.0 °F 84% 29.94 in 10.0 mi SE 3.5 mph - N/A   Clear
8:53 AM 66.0 °F - 59.0 °F 78% 29.94 in 10.0 mi SSE 5.8 mph - N/A   Scattered Clouds
9:53 AM 69.1 °F - 61.0 °F 75% 29.91 in 10.0 mi South 6.9 mph - N/A   Clear
10:53 AM 77.0 °F - 66.0 °F 69% 29.90 in 10.0 mi South 12.7 mph - N/A   Clear
11:53 AM 80.1 °F 82.7 °F 68.0 °F 67% 29.87 in 10.0 mi SSW 13.8 mph 24.2 mph N/A   Clear
12:36 PM 81.0 °F 84.4 °F 70.0 °F 69% 29.88 in 10.0 mi SSW 13.8 mph - N/A   Mostly Cloudy
12:53 PM 81.0 °F 84.4 °F 70.0 °F 69% 29.86 in 10.0 mi SSW 10.4 mph 17.3 mph N/A   Overcast
1:46 PM 82.0 °F 85.9 °F 70.0 °F 67% 29.85 in 10.0 mi South 17.3 mph 23.0 mph N/A   Mostly Cloudy
1:53 PM 82.0 °F 85.9 °F 70.0 °F 67% 29.83 in 10.0 mi South 13.8 mph 23.0 mph N/A   Mostly Cloudy
2:53 PM 82.0 °F 85.9 °F 70.0 °F 67% 29.81 in 10.0 mi South 11.5 mph 24.2 mph N/A   Mostly Cloudy
3:53 PM 82.0 °F 85.9 °F 70.0 °F 67% 29.78 in 10.0 mi South 16.1 mph 24.2 mph N/A   Scattered Clouds
4:51 PM 80.6 °F 83.9 °F 69.8 °F 70% 29.77 in 10.0 mi South 15.0 mph - N/A   Mostly Cloudy
4:53 PM 80.1 °F 83.2 °F 70.0 °F 71% 29.75 in 10.0 mi South 12.7 mph - N/A   Mostly Cloudy
5:53 PM 79.0 °F - 68.0 °F 69% 29.74 in 10.0 mi South 16.1 mph 26.5 mph N/A   Clear
6:53 PM 75.9 °F - 68.0 °F 76% 29.73 in 10.0 mi South 10.4 mph - N/A   Clear
7:53 PM 73.9 °F - 68.0 °F 82% 29.72 in 10.0 mi South 10.4 mph - N/A   Scattered Clouds
8:05 PM 75.0 °F - 68.0 °F 79% 29.74 in 10.0 mi South 11.5 mph - N/A   Mostly Cloudy
8:36 PM 73.9 °F - 68.0 °F 82% 29.75 in 10.0 mi South 13.8 mph - N/A   Scattered Clouds
8:53 PM 73.9 °F - 69.1 °F 85% 29.74 in 10.0 mi South 11.5 mph 17.3 mph N/A   Partly Cloudy
9:07 PM 75.0 °F - 69.1 °F 82% 29.76 in 10.0 mi South 12.7 mph - N/A   Mostly Cloudy
9:35 PM 75.0 °F - 69.1 °F 82% 29.75 in 10.0 mi South 15.0 mph 23.0 mph N/A   Scattered Clouds
9:53 PM 75.0 °F - 69.1 °F 82% 29.72 in 10.0 mi South 16.1 mph - N/A   Mostly Cloudy
10:11 PM 73.9 °F - 69.1 °F 85% 29.73 in 10.0 mi South 12.7 mph - N/A   Scattered Clouds
10:53 PM 73.9 °F - 69.1 °F 85% 29.68 in 10.0 mi South 18.4 mph 25.3 mph N/A   Partly Cloudy
11:43 PM 73.9 °F - 69.1 °F 85% 29.74 in 10.0 mi South 11.5 mph - N/A   Mostly Cloudy
11:53 PM 73.9 °F - 70.0 °F 87% 29.72 in 10.0 mi SSW 10.4 mph 19.6 mph N/A   Mostly Cloudy